York, NE

10:17 PM CDT on April 28, 2017 (GMT -0500)
York Municipal

Weather History for KJYR - October, 2011

Change the Weather History Date:

Tuesday, October 11, 2011

  Actual Average Record
Temperature  
Mean Temperature 64 °F -  
Max Temperature 77 °F 66 °F 95 °F (2015)
Min Temperature 50 °F 41 °F 26 °F (1987)
Degree Days  
Heating Degree Days 2    
Growing Degree Days 14 (Base 50)    
Moisture  
Dew Point 54 °F    
Average Humidity 77    
Maximum Humidity 100    
Minimum Humidity 44    
Precipitation  
Precipitation 0.00 in - - ()
Sea Level Pressure  
Sea Level Pressure 29.84 in    
Wind  
Wind Speed 9 mph (South)    
Max Wind Speed 18 mph    
Max Gust Speed 24 mph    
Visibility 10 miles    
Events Thunderstorm    
Averages and records for this station are not official NWS values.
T = Trace of Precipitation, MM = Missing Value Source: NWS Daily Summary

Daily Weather History Graph

Daily Weather History Graph

Search for Another Location

Airport or City:

Trip Planner

Search our weather history database for the weather conditions in past years. The results will help you decide how hot, cold, wet, or windy it might be!

Date:

Astronomy

Oct. 11, 2011 Rise Set
Actual Time 7:37 AM CDT 6:56 PM CDT
Civil Twilight 7:09 AM CDT 7:24 PM CDT
Nautical Twilight 6:37 AM CDT 7:55 PM CDT
Astronomical Twilight 6:06 AM CDT 8:27 PM CDT
Moon 6:28 PM CDT (10/11) 7:16 AM CDT (10/11)
Length of Visible Light 12h 14m
Length of Day
11h 19m
Full, 100% of the Moon is Illuminated
Oct 11
Full
Oct 11
Full
Oct 19
Last Quarter
Oct 26
New
Nov 2
First Quarter

Hourly Weather History & Observations

Time (CDT) Temp. Dew Point Humidity Pressure Visibility Wind Dir Wind Speed Gust Speed Precip Events Conditions
12:15 AM 55.4 °F 51.8 °F 88% 29.94 in 10.0 mi South 8.1 mph - N/A   Clear
12:35 AM 55.4 °F 51.8 °F 88% 29.93 in 10.0 mi South 6.9 mph - N/A   Clear
12:55 AM 53.6 °F 51.8 °F 94% 29.93 in 10.0 mi South 4.6 mph - N/A   Clear
1:15 AM 53.6 °F 51.8 °F 94% 29.93 in 10.0 mi South 5.8 mph - N/A   Clear
1:35 AM 53.6 °F 51.8 °F 94% 29.92 in 10.0 mi South 5.8 mph - N/A   Clear
2:15 AM 53.6 °F 51.8 °F 94% 29.93 in 10.0 mi South 8.1 mph - N/A   Clear
2:35 AM 53.6 °F 51.8 °F 94% 29.92 in 10.0 mi South 6.9 mph - N/A   Clear
2:55 AM 53.6 °F 51.8 °F 94% 29.92 in 10.0 mi South 6.9 mph - N/A   Clear
3:15 AM 53.6 °F 51.8 °F 94% 29.91 in 10.0 mi South 8.1 mph - N/A   Clear
3:35 AM 51.8 °F 50.0 °F 94% 29.91 in 10.0 mi South 8.1 mph - N/A   Clear
3:55 AM 51.8 °F 50.0 °F 94% 29.91 in 10.0 mi South 8.1 mph - N/A   Clear
4:15 AM 50.0 °F 50.0 °F 100% 29.91 in 10.0 mi South 6.9 mph - N/A   Clear
4:55 AM 50.0 °F 50.0 °F 100% 29.90 in 10.0 mi South 8.1 mph - N/A   Clear
5:15 AM 50.0 °F 50.0 °F 100% 29.90 in 10.0 mi South 8.1 mph - N/A   Clear
5:55 AM 50.0 °F 50.0 °F 100% 29.89 in 10.0 mi South 9.2 mph - N/A   Clear
6:15 AM 51.8 °F 51.8 °F 100% 29.89 in 10.0 mi South 9.2 mph - N/A   Clear
6:35 AM 51.8 °F 51.8 °F 100% 29.89 in 10.0 mi South 9.2 mph - N/A   Partly Cloudy
6:55 AM 51.8 °F 51.8 °F 100% 29.89 in 8.0 mi South 8.1 mph - N/A   Partly Cloudy
7:15 AM 51.8 °F 51.8 °F 100% 29.89 in 7.0 mi South 8.1 mph - N/A   Mostly Cloudy
7:35 AM 53.6 °F 53.6 °F 100% 29.88 in 8.0 mi South 6.9 mph - N/A   Overcast
7:55 AM 53.6 °F 53.6 °F 100% 29.87 in 6.0 mi South 6.9 mph - N/A   Mostly Cloudy
8:15 AM 53.6 °F 53.6 °F 100% 29.87 in 7.0 mi South 8.1 mph - N/A   Mostly Cloudy
8:35 AM 53.6 °F 53.6 °F 100% 29.87 in 8.0 mi South 6.9 mph - N/A   Mostly Cloudy
9:15 AM 57.2 °F 55.4 °F 94% 29.86 in 9.0 mi South 6.9 mph - N/A   Clear
9:35 AM 59.0 °F 55.4 °F 88% 29.86 in 10.0 mi South 10.4 mph - N/A   Clear
9:55 AM 59.0 °F 57.2 °F 94% 29.85 in 10.0 mi South 10.4 mph - N/A   Clear
10:15 AM 62.6 °F 57.2 °F 82% 29.85 in 10.0 mi South 10.4 mph - N/A   Scattered Clouds
10:35 AM 64.4 °F 57.2 °F 77% 29.85 in 10.0 mi South 15.0 mph - N/A   Scattered Clouds
10:55 AM 66.2 °F 59.0 °F 78% 29.85 in 10.0 mi SSW 13.8 mph - N/A   Scattered Clouds
11:15 AM 68.0 °F 59.0 °F 73% 29.84 in 10.0 mi South 13.8 mph - N/A   Partly Cloudy
11:35 AM 68.0 °F 57.2 °F 68% 29.83 in 10.0 mi South 15.0 mph 18.4 mph N/A   Partly Cloudy
11:55 AM 69.8 °F 57.2 °F 64% 29.83 in 10.0 mi South 16.1 mph 20.7 mph N/A   Scattered Clouds
12:15 PM 69.8 °F 57.2 °F 64% 29.82 in 10.0 mi South 13.8 mph - N/A   Mostly Cloudy
12:35 PM 71.6 °F 57.2 °F 60% 29.82 in 10.0 mi SSW 10.4 mph 18.4 mph N/A   Scattered Clouds
12:55 PM 73.4 °F 57.2 °F 57% 29.81 in 10.0 mi SSW 15.0 mph - N/A   Partly Cloudy
1:15 PM 75.2 °F 57.2 °F 53% 29.80 in 10.0 mi South 12.7 mph - N/A   Partly Cloudy
1:35 PM 73.4 °F 57.2 °F 57% 29.79 in 10.0 mi South 13.8 mph 19.6 mph N/A   Scattered Clouds
2:35 PM 75.2 °F 55.4 °F 50% 29.76 in 10.0 mi South 16.1 mph 23.0 mph N/A   Mostly Cloudy
3:15 PM 75.2 °F 55.4 °F 50% 29.75 in 10.0 mi South 15.0 mph 21.9 mph N/A   Mostly Cloudy
3:35 PM 77.0 °F 55.4 °F 47% 29.74 in 10.0 mi South 15.0 mph 21.9 mph N/A   Mostly Cloudy
3:55 PM 77.0 °F 55.4 °F 47% 29.73 in 10.0 mi South 16.1 mph 24.2 mph N/A   Mostly Cloudy
4:15 PM 75.2 °F 53.6 °F 47% 29.73 in 10.0 mi South 15.0 mph 20.7 mph N/A   Mostly Cloudy
4:35 PM 75.2 °F 53.6 °F 47% 29.72 in 10.0 mi South 13.8 mph 23.0 mph N/A   Mostly Cloudy
4:55 PM 75.2 °F 53.6 °F 47% 29.72 in 10.0 mi South 16.1 mph 23.0 mph N/A   Overcast
5:15 PM 75.2 °F 53.6 °F 47% 29.72 in 10.0 mi South 13.8 mph 21.9 mph N/A   Scattered Clouds
5:35 PM 75.2 °F 51.8 °F 44% 29.71 in 10.0 mi South 16.1 mph 19.6 mph N/A   Scattered Clouds
5:55 PM 73.4 °F 53.6 °F 50% 29.71 in 10.0 mi South 18.4 mph 21.9 mph N/A Thunderstorm Thunderstorm
6:15 PM 71.6 °F 51.8 °F 50% 29.72 in 10.0 mi South 18.4 mph 24.2 mph N/A Thunderstorm Mostly Cloudy
6:35 PM 71.6 °F 51.8 °F 50% 29.73 in 10.0 mi South 13.8 mph - N/A   Clear
6:55 PM 71.6 °F 50.0 °F 46% 29.73 in 10.0 mi SSE 10.4 mph - N/A   Partly Cloudy
7:15 PM 68.0 °F 51.8 °F 56% 29.73 in 10.0 mi SSE 12.7 mph - N/A   Partly Cloudy
7:55 PM 68.0 °F 51.8 °F 56% 29.74 in 10.0 mi SSE 11.5 mph - N/A   Scattered Clouds
8:15 PM 68.0 °F 51.8 °F 56% 29.75 in 10.0 mi South 11.5 mph - N/A   Overcast
8:35 PM 68.0 °F 51.8 °F 56% 29.74 in 10.0 mi SSE 10.4 mph - N/A   Overcast
8:55 PM 64.4 °F 55.4 °F 73% 29.75 in 9.0 mi South 8.1 mph - N/A Rain , Thunderstorm Light Rain
9:15 PM 62.6 °F 55.4 °F 77% 29.75 in 10.0 mi SSE 6.9 mph - N/A Thunderstorm Thunderstorm
9:35 PM 62.6 °F 55.4 °F 77% 29.77 in 10.0 mi South 9.2 mph - N/A Thunderstorm Mostly Cloudy
9:55 PM 60.8 °F 57.2 °F 88% 29.76 in 9.0 mi SE 10.4 mph - 0.01 in Rain , Thunderstorm Light Rain
10:15 PM 59.0 °F 57.2 °F 94% 29.76 in 10.0 mi ESE 3.5 mph - N/A Rain , Thunderstorm Light Rain
10:35 PM 60.8 °F 57.2 °F 88% 29.75 in 10.0 mi Calm Calm - N/A Thunderstorm Overcast
10:55 PM 59.0 °F 55.4 °F 88% 29.75 in 3.0 mi WSW 6.9 mph - 0.14 in Rain , Thunderstorm Light Thunderstorms and Rain
11:15 PM 59.0 °F 57.2 °F 94% 29.75 in 10.0 mi SSE 6.9 mph - 0.01 in Rain , Thunderstorm Light Rain
11:35 PM 59.0 °F 57.2 °F 94% 29.75 in 10.0 mi SE 8.1 mph - 0.01 in Rain , Thunderstorm Light Rain
11:55 PM 59.0 °F 57.2 °F 94% 29.74 in 10.0 mi ESE 4.6 mph - 0.01 in   Overcast